sat.trackr.live / text

‹ back to catalog

S5

NORAD 44065 · 2019-009D

PAYLOAD ACTIVE UNKNOWN

§ Identity

Operator
Country
US
Launch date
2019-02-22
Launch site
AFETR
Launch vehicle
Mass (kg)
RCS (m²)

External: N2YO · Heavens-Above · Gunter

§ Orbital elements

Epoch: 2026-09-19T13:51:13.947264Z

Period
1,449.64 min
Inclination
6.7960°
Eccentricity
0.0005179
Mean motion
0.99334762 rev/d
Perigee alt
36,029.4 km
Apogee alt
36,073.3 km
Semi-major
42,429.5 km
B*
0.0000e+0
RAAN
69.6645°
Arg perigee
137.6785°
Mean anomaly
244.0764°
Rev number
2,738

§ Raw data

S51 44065U 19009D   26262.57724476  .00000060  00000+0  00000+0 0  99922 44065   6.7960  69.6645 0005179 137.6785 244.0764  0.99334762 27384

JSON: /api/v1/satellites/44065 · /tle

For live sub-satellite position, see the globe view (requires WebGL).

§ Visibility from observer

Set your observer location to see the next 7 days of passes ≥ 10°. The values pass through the URL so the page stays shareable.

No JS? Fill the form by hand. The geolocation button needs JavaScript.